Dewpoint
52 53 52 52 52 53 52 55 57 58 59 59 59 59 59 59 60 59 59 58 58 59 59 59 58 58 50 42 37 44 59 55 40 34 28 27 24 20 15 12 14 19 16 15 19 20 21
52 53 53 52 52 52 52 52 54 57 58 59 58 58 59 59 59 59 58 58 57 58 58 58 58 58 46 39 37 40 38 35 31 30 30 28 26 28 28 23 20 25 27 23 21 21 21
51 52 53 52 51 52 53 53 52 53 56 58 58 58 58 58 58 58 58 57 57 57 58 58 59 50 44 40 37 38 38 32 32 33 31 35 35 32 29 25 25 28 25 24 23 22 21
49 51 52 53 52 51 51 53 52 53 54 56 58 58 57 57 57 57 57 57 57 57 57 58 58 48 43 40 41 39 37 34 37 34 32 36 37 35 32 30 29 26 26 23 21 20 21
48 50 50 52 52 51 51 52 53 54 53 55 57 57 57 57 56 56 56 56 56 57 58 57 51 47 39 46 39 38 38 34 33 34 33 31 35 32 31 28 26 26 21 22 20 20 22
46 49 50 51 52 51 51 51 52 53 53 53 56 56 57 56 56 55 55 56 57 57 55 51 47 43 42 37 37 37 37 36 32 32 32 31 31 30 31 28 20 21 24 22 17 20 24
45 46 48 49 50 52 51 51 50 53 53 52 54 56 56 56 56 55 55 55 51 49 48 41 40 40 29 38 35 32 32 33 31 32 28 30 25 24 27 29 27 22 22 25 25 22 23
46 46 46 48 50 51 53 51 50 50 52 53 53 55 56 56 56 55 55 47 43 41 41 44 40 41 39 34 33 33 35 31 30 28 30 26 27 24 26 26 26 27 27 27 25 24 26
47 47 47 47 48 50 52 51 50 50 51 52 53 55 55 56 55 55 52 48 43 42 39 41 43 41 38 37 33 32 37 32 27 30 29 24 26 28 27 27 29 30 30 29 26 27 29
47 47 48 48 49 49 51 51 50 50 50 52 52 54 55 55 52 54 52 51 46 47 36 30 42 40 39 35 33 33 39 32 31 31 28 25 24 26 30 28 30 30 30 29 28 30 27
47 47 48 48 49 48 49 51 50 50 50 50 50 52 54 54 54 52 53 52 53 51 29 26 34 38 36 34 24 28 38 39 33 33 31 27 28 29 32 31 31 31 34 34 32 32 32
47 48 48 48 49 48 49 50 50 50 50 50 50 51 53 53 54 56 56 54 51 36 27 27 26 32 33 33 28 22 32 40 37 32 32 30 32 32 32 33 33 34 34 35 34 33 31
47 47 48 48 49 49 49 50 49 49 50 50 50 50 52 54 50 57 56 51 34 29 35 28 26 30 31 31 30 24 28 36 34 31 32 30 30 34 35 34 34 34 35 33 30 30 28
47 48 48 49 50 49 48 49 49 49 49 49 50 49 50 53 55 54 52 43 30 34 32 31 28 28 28 28 30 29 27 33 36 32 28 28 28 32 34 34 33 35 35 32 25 27 25
47 47 48 50 50 49 48 49 49 49 49 49 49 49 49 52 56 54 46 32 32 34 31 31 31 30 28 26 28 28 25 30 35 33 26 28 26 30 32 34 34 35 34 34 33 33 34
46 47 48 49 50 49 48 49 49 49 48 49 45 46 46 52 55 52 43 34 35 33 30 31 36 35 31 26 26 28 23 28 33 34 32 28 27 28 32 34 34 35 35 35 35 31 28
46 46 48 50 50 49 48 49 49 48 48 48 46 39 47 50 49 46 35 35 37 35 32 30 39 38 34 30 28 28 22 24 33 34 33 32 34 31 32 32 32 33 33 35 35 34 29
46 46 47 50 50 49 48 49 48 48 48 45 43 34 45 47 35 39 34 37 39 35 36 38 39 40 35 35 32 31 27 27 32 33 34 35 35 32 31 34 34 35 34 35 34 32 34
45 45 46 49 49 48 48 49 48 48 47 42 39 39 48 44 31 33 35 38 39 36 36 40 37 42 42 37 37 35 35 32 37 35 35 36 37 36 35 36 35 33 33 34 35 35 34
44 45 45 47 49 49 49 48 48 47 46 41 38 32 37 42 39 35 34 36 38 38 36 39 39 41 41 41 40 39 37 38 42 39 42 39 39 38 35 33 35 35 32 32 34 34 34
44 44 45 45 49 48 48 48 48 47 45 44 39 35 36 32 32 34 36 37 37 35 39 40 41 42 41 40 42 42 41 40 41 42 42 39 37 40 38 34 34 33 32 32 31 34 34
43 43 45 46 47 48 48 47 47 47 45 44 34 35 36 35 34 33 34 36 37 37 38 40 38 40 42 39 39 39 41 42 40 41 41 43 38 40 37 35 32 30 29 31 32 33 33
44 43 45 47 47 48 47 47 47 46 44 41 44 37 39 35 33 34 33 34 38 39 39 41 40 37 39 39 43 42 43 46 44 41 40 40 41 38 37 36 38 36 35 29 31 31 33
44 44 46 47 47 48 47 47 47 46 43 35 36 38 36 32 34 35 37 35 35 39 38 39 42 40 41 47 48 48 46 45 44 44 45 41 41 39 35 36 31 30 30 30 30 30 30
45 44 45 45 47 47 47 47 46 46 45 39 43 41 38 33 29 30 35 37 38 40 40 40 40 41 46 46 39 35 35 38 41 44 45 45 41 34 33 34 34 28 27 30 31 32 34
44 43 43 45 47 47 46 46 46 46 45 42 46 45 42 36 32 26 32 37 36 37 40 41 43 48 46 41 35 32 31 34 34 39 44 44 44 37 34 32 29 33 30 31 34 30 33
44 43 43 44 47 46 46 46 46 46 46 43 46 46 42 36 33 33 35 35 40 38 36 41 43 45 46 38 34 33 34 37 32 32 34 36 38 35 33 34 33 31 31 33 30 33 36
43 43 43 44 47 46 46 46 45 45 45 43 43 48 41 38 38 37 36 37 36 39 35 37 39 40 39 37 36 37 36 36 37 37 36 35 33 34 35 33 30 34 31 31 39 39 36
43 43 43 43 45 45 45 46 45 44 44 44 42 46 47 39 35 38 39 38 38 37 34 40 40 38 39 38 39 38 36 38 37 33 37 35 37 36 36 35 41 40 37 38 39 38 37
Lifted_Index
10 11 11 11 11 10 9 8 6 5 4 3 3 4 5 6 6 6 7 7 7 8 8 9 9 9 9 8 7 8 8 9 9 9 9 8 8 7 7 6 6 6 5 6 6 6 5
9 9 10 10 10 10 10 9 7 6 5 4 3 4 5 6 6 6 7 7 7 8 8 8 9 9 8 8 8 8 8 9 9 9 8 8 7 7 7 6 6 6 5 5 6 6 5
7 7 7 8 9 9 10 10 9 7 6 5 4 4 4 5 6 6 7 7 7 8 8 8 8 8 8 8 8 8 8 9 8 8 8 7 7 7 6 6 6 5 5 5 5 5 5
4 4 5 6 7 8 9 10 10 9 7 6 5 4 4 4 5 6 6 7 7 8 8 8 8 8 8 7 7 7 8 8 8 8 8 7 7 6 6 6 5 5 4 3 3 4 4
2 2 3 4 5 6 8 9 10 10 9 7 6 5 4 3 4 5 6 7 7 8 8 8 8 8 8 7 7 7 7 8 8 8 8 8 7 7 6 5 4 3 3 2 2 3 4
2 1 2 2 3 5 6 8 10 10 10 8 7 6 5 4 3 5 6 7 7 7 8 8 8 7 7 7 7 7 7 8 8 8 8 8 7 6 5 4 3 3 2 2 2 2 3
2 2 1 2 2 3 5 7 9 10 10 9 9 7 6 5 4 4 6 7 7 7 8 8 7 7 7 7 7 7 7 8 8 7 7 7 6 5 4 4 3 3 3 3 2 2 3
2 2 2 2 2 3 4 6 8 10 10 10 9 8 7 6 5 4 5 6 7 7 7 7 7 7 7 7 7 7 7 7 7 7 6 6 5 4 4 4 4 3 3 3 2 2 2
2 2 2 2 2 2 3 5 7 9 10 10 9 8 7 6 6 5 5 6 6 6 6 6 6 6 6 7 7 7 6 6 6 6 5 5 5 5 4 4 3 3 3 2 2 2 1
1 1 1 1 1 2 3 4 6 8 9 10 10 9 7 6 6 5 5 5 5 4 5 6 6 6 6 7 7 7 6 5 5 5 5 5 5 4 4 3 3 3 2 2 2 1 1
1 1 1 1 1 1 2 3 5 7 9 10 10 9 8 6 6 5 5 5 5 4 4 5 6 6 6 7 7 7 5 4 4 4 4 4 4 4 3 3 3 2 2 2 1 1 1
1 1 1 1 1 1 2 3 5 7 8 9 10 10 8 7 5 5 5 5 5 4 4 5 6 6 6 7 7 7 6 4 4 4 4 4 4 3 3 3 3 2 2 1 1 0 0
2 1 1 1 1 1 1 2 4 6 7 8 9 10 9 7 6 5 4 4 4 4 5 5 6 6 6 6 7 6 6 5 4 4 4 3 3 3 3 3 2 2 1 1 0 -0 -0
2 2 1 1 1 1 1 2 3 5 7 7 8 9 9 8 6 5 4 3 3 4 5 5 5 5 6 6 6 6 6 5 4 4 4 3 3 3 3 3 2 2 1 0 -0 -1 -1
2 2 2 1 1 1 2 2 2 4 6 7 8 8 9 8 6 5 3 2 2 4 5 4 4 4 5 5 5 5 5 5 4 4 4 3 3 3 3 2 2 1 1 0 -0 -1 -1
3 3 2 1 1 1 2 2 2 3 5 6 7 8 8 8 6 4 3 2 3 4 4 3 3 4 4 5 5 5 5 5 4 4 4 3 3 2 2 2 2 1 1 0 -0 -0 -0
3 3 2 1 1 2 2 2 2 2 4 5 7 8 8 7 5 3 2 2 3 3 3 3 2 3 3 3 4 4 4 4 4 4 3 3 2 2 1 2 2 2 1 0 0 1 1
4 3 2 1 1 2 2 2 2 2 3 4 6 8 8 6 3 1 1 2 3 3 3 2 2 2 2 2 2 3 3 3 3 3 3 3 2 1 1 1 2 2 2 1 1 1 1
4 3 2 1 1 1 1 2 2 2 2 4 6 7 6 5 3 1 1 2 3 3 3 2 2 1 1 1 1 2 2 2 2 2 3 2 2 2 1 1 2 2 2 1 1 1 2
4 4 2 1 0 0 1 1 2 2 2 3 4 6 5 4 3 1 1 2 2 2 2 2 2 1 0 0 1 1 1 2 2 2 2 2 2 2 1 1 2 2 2 1 1 1 1
5 4 3 2 1 1 1 1 1 2 2 2 3 4 4 4 3 2 1 1 2 1 1 1 2 1 1 0 1 1 1 1 1 2 2 2 2 2 1 1 1 1 1 1 1 1 1
5 4 3 2 2 1 1 1 1 1 2 2 2 3 3 3 3 2 2 1 2 1 1 1 2 2 1 1 1 1 1 0 1 1 1 1 2 1 1 0 0 1 1 1 0 0 1
5 5 4 3 2 1 1 1 1 1 2 2 2 2 2 3 3 2 2 2 2 1 0 1 1 1 1 1 1 1 1 1 0 0 1 1 1 1 1 0 0 1 1 1 0 0 0
5 5 4 2 1 1 0 1 1 1 2 2 2 1 1 2 2 2 3 2 2 1 0 0 0 -0 -0 0 0 1 1 1 1 0 0 1 1 1 1 0 1 2 2 1 0 0 0
5 5 4 2 1 1 1 1 1 1 1 2 1 1 1 1 2 2 3 3 2 1 0 -0 -1 -1 -1 -0 0 1 1 1 1 1 1 1 1 1 1 1 1 2 2 1 0 0 0
5 5 4 3 2 1 1 1 1 1 1 1 1 0 0 0 1 2 2 2 2 1 0 -0 -1 -2 -1 -0 0 1 1 1 1 1 1 1 1 1 1 1 2 2 2 1 1 1 1
5 5 4 3 2 2 2 1 1 1 1 1 1 0 -0 0 0 1 2 2 2 1 1 -0 -1 -1 -1 -1 0 0 0 1 1 2 1 1 1 1 2 2 2 2 2 1 1 1 1
5 5 5 3 2 2 2 2 1 1 1 1 1 0 0 0 1 2 3 4 3 3 2 1 0 -0 -0 0 0 1 1 1 1 1 1 1 1 1 1 1 2 2 2 1 1 1 1
5 5 5 4 3 2 2 2 1 1 1 1 1 0 0 0 1 2 4 5 5 4 3 2 1 1 1 1 1 1 1 1 1 1 1 1 1 1 1 1 1 2 2 1 1 1 2